SL-14 DEB, 45355

Orbit data source: Space-Track

SL-14 DEB, 45355 is space debris in LEO originally from a launch on Thu, 15 Aug 1991 UTC launched from the Plesetsk Missile And Space Complex (PKMTR). Debris objects in space refer to the collection of defunct objects orbiting the Earth. Examples of debris include non-operational satellites, rocket bodies, and fragments generated from explosions, collisions, or faulty payload assembly.

Loading next visibility...
Identifier
45355, 1991-056CP
Orbit
LEO
Country
Flag of CISCIS
Related business
Manufacturer
Unknown
Mission
Spacecraft
Bus & Motor
Unknown
Mass
Unknown
Launch date (UTC)
1991-08-15 (34 years ago)
Launch vehicle
Unknown
Launch site
Plesetsk Missile And Space Complex (PKMTR)
Object type
Payload
Rocket body
Debris
Shape & HBR
Unknown shape, 0.1 m
Radar Cross Section
Small (<0.1 m²)

Expand to show TLE details & history
Last TLE update: 23 hours ago

TLE from 23 hours ago
0 SL-14 DEB
1 45355U 91056CP  26035.13902719  .00000915  00000-0  25493-2 0  9991
2 45355  82.6031 282.1046 0075072 334.0858  25.6508 13.10466350284109
Epoch: 2026-02-04T03:20Z
TLE epoch observation values (Epoch: 2026-02-04T03:20:11.949Z)
Latitude
-0.00005°
Longitude
97.7449°
Altitude
1,172.798 km
Speed
7.292 km/s
True Right ascension
18h 48m 25s
True Declination
0° 00' 00"
Sunlit
Object was in daylight at epoch
Visualization orbit readout
Latitude
Unknown
Longitude
Unknown
Altitude
Unknown
Speed
Unknown
Apparent Right ascension
Unknown
Apparent Declination
Unknown
Sunlit
N/A
Visualization observer readout
Local Sidereal Time
03:53:11
Azimuth
Unknown
Elevation
Unknown
Doppler factor
Unknown
Orbital elements
Apogee altitude
1,275.637 km
Perigee altitude
1,161.577 km
Semi-major axis
7,596.744 km
Eccentricity
0.00751
Inclination
82.6031°
RAAN
282.1046°
Arg. of periapsis
334.0858°
True anomaly
26.02637°
Mean anomaly
25.6508°
Eccentric anomaly
25.83826°
Mean motion
3.27795 °/min
Orbital period
109.82 mins
BSTAR
0.0025493
Loading maneuver chart data...
Computing Atmospheric mass density...
Loading historical data...
Loading historical data...
Loading historical data...
Loading historical data...
Loading historical data...
Loading historical data...
Loading historical data...

Documentation

Showing up to 5 results
|